Terminal Aerodrome Forecast
Issued by NWS Pittsburgh, PA

Home | Current Version | Previous Version | Text Only | Print | Product List | Glossary On
Versions: 1 2 3 4 5 6 7 8 9 10 11 12 13 14 15 16 17 18 19 20 21 22 23 24 25 26 27
000
FTUS41 KPBZ 110532
TAFPIT
TAF
KPIT 110532Z 1106/1212 20003KT P6SM SCT035 OVC080
     FM110900 17003KT 3SM -SN OVC025
      TEMPO 1110/1114 2SM -SN OVC015
     FM111800 15006KT 5SM -SN OVC035
     FM120100 14007KT P6SM -RASN OVC035
     FM120700 19008KT 5SM -RASN OVC015=

USA.gov is the U.S. government's official web portal to all federal, state and local government web resources and services.